Theta_e
321 321 317 319 318 317 318 316 317 320 320 319 322 326 325 323 320 317 317 316 316 317 319 318 318 320 320 318 317 314 311 312 314 315 314 313 312 312 312 313 313 314 313 309 308 310 310 311 312 312 313 315 318 319 321 322 323 324 325 327 328 328 329 329 329 329 329 328 328 329 330 331 331 332 332 331 331 332 332 333 332 332 332 331 331 331
319 319 318 319 317 316 317 317 317 318 319 319 321 324 321 319 320 315 315 319 317 315 319 318 318 320 319 317 316 314 314 314 315 315 314 313 312 311 311 311 313 314 312 310 309 308 309 311 312 312 313 314 317 319 320 322 322 324 325 326 327 328 328 329 329 328 328 327 327 328 328 329 329 329 330 330 331 331 331 331 331 331 331 331 331 330
318 319 320 318 315 314 314 316 320 323 325 324 321 321 321 319 319 316 315 319 317 315 321 324 322 321 318 317 316 315 315 315 313 314 314 313 312 311 310 310 314 315 315 315 312 308 308 310 311 312 313 314 317 318 320 321 323 324 325 326 327 327 328 328 328 328 327 327 326 327 327 327 327 326 327 328 328 330 330 330 330 330 330 331 332 330
318 320 319 315 312 314 315 316 320 322 323 325 322 321 321 319 319 318 317 319 316 314 319 323 320 318 316 317 318 316 314 314 313 314 314 313 312 311 310 312 314 316 317 317 316 310 306 308 311 311 313 315 317 319 320 321 322 324 324 325 326 326 327 327 327 327 326 326 325 325 325 325 325 325 325 325 326 328 329 330 330 330 330 330 331 330
319 316 313 313 313 316 317 316 318 319 317 320 329 333 328 325 323 320 318 319 316 314 318 318 316 323 326 324 328 325 316 315 317 317 317 315 313 311 310 313 314 314 316 317 319 316 307 306 311 312 313 315 317 318 319 321 321 323 323 324 325 326 326 326 326 325 325 324 324 323 322 322 322 322 322 322 324 326 327 328 329 329 329 329 329 329
316 312 312 316 317 319 318 317 319 322 316 315 326 332 330 332 329 323 321 320 318 316 315 312 313 331 338 329 330 328 319 318 318 316 317 317 316 315 316 320 320 317 316 316 318 318 308 306 309 312 313 314 316 318 318 320 321 321 323 323 324 324 325 324 324 324 323 323 322 322 321 320 320 319 319 320 321 322 324 325 326 327 328 328 327 327
315 313 316 321 322 320 318 317 317 321 319 315 318 321 326 334 330 324 320 317 319 315 311 311 314 322 327 322 322 322 318 319 316 315 317 314 314 320 325 329 329 324 323 322 320 319 311 307 309 311 313 315 316 317 317 319 320 320 321 321 322 322 323 323 322 323 322 322 322 321 321 320 319 319 318 318 319 320 321 322 324 325 326 326 327 326
315 318 318 323 327 322 318 319 316 319 320 315 317 322 328 332 329 329 325 321 323 316 315 322 321 316 319 319 320 320 319 322 322 322 322 315 313 324 334 334 331 328 327 327 329 331 317 307 309 312 314 315 315 316 317 318 319 319 320 320 320 320 320 321 321 321 321 321 321 320 320 319 319 318 318 318 317 318 319 320 321 323 324 324 325 324
317 322 320 323 328 323 321 322 318 323 326 318 316 322 327 329 331 334 335 333 324 313 319 327 318 314 325 328 324 318 316 320 324 323 321 317 317 325 332 331 328 328 326 326 333 334 317 308 310 313 313 314 315 316 317 318 318 318 319 319 319 319 319 319 320 320 320 320 320 319 319 318 318 318 317 317 316 316 316 317 318 319 320 321 322 323
316 319 319 322 324 321 322 320 317 325 328 319 315 319 322 325 330 331 332 330 319 313 325 327 314 312 322 330 328 317 314 321 324 323 321 319 319 323 329 331 333 334 330 329 329 319 310 311 312 311 313 314 315 315 316 316 317 318 318 318 318 318 318 318 319 319 318 318 318 318 317 317 317 316 316 315 315 315 314 315 315 316 317 318 318 319
315 314 314 317 318 320 320 318 318 321 319 315 320 324 322 327 331 332 333 325 312 318 328 323 316 312 314 326 330 318 317 323 322 323 323 321 320 321 329 336 337 337 332 332 332 316 306 310 312 311 313 314 314 315 315 315 316 316 317 317 317 317 317 317 317 317 317 317 317 317 317 316 316 315 314 314 313 313 313 313 313 313 314 315 315 315
317 316 317 317 315 318 321 320 318 316 316 319 327 327 321 326 328 329 332 323 315 325 325 318 317 314 312 325 331 324 322 321 318 321 324 323 321 320 327 332 330 332 333 335 339 327 314 312 312 311 312 313 314 314 314 315 315 315 315 315 315 315 315 316 316 316 316 316 315 315 315 315 314 314 313 313 313 312 312 312 311 311 311 312 313 313
320 320 318 316 315 317 324 326 319 318 323 323 325 325 320 324 322 322 330 324 320 323 316 316 319 315 315 322 324 324 323 321 318 318 321 322 320 320 326 330 328 329 335 338 338 340 336 322 311 311 313 313 314 314 314 315 314 314 315 314 314 315 314 315 314 314 314 314 314 314 314 314 313 313 313 312 312 312 312 312 311 310 310 310 311 311
322 324 319 317 318 317 320 324 320 320 324 320 321 323 321 322 319 321 327 319 318 322 315 315 318 318 320 318 317 321 317 317 317 314 318 321 319 319 324 332 333 327 331 338 340 349 348 322 309 312 315 314 314 314 314 314 313 314 314 314 314 314 314 314 313 313 313 313 313 313 313 313 313 313 312 312 312 312 311 311 310 309 309 309 309 310
322 324 322 319 320 318 317 320 324 325 322 318 319 318 319 326 326 325 326 321 322 324 318 314 317 324 325 313 314 319 314 315 315 312 314 316 316 320 326 334 336 329 328 333 341 348 332 311 310 315 314 314 315 314 314 314 314 314 314 314 314 314 314 313 313 313 313 313 313 313 313 312 312 312 312 312 311 311 311 310 310 309 309 309 309 309
317 319 321 318 316 318 318 319 322 324 320 318 316 313 316 324 327 322 317 318 321 320 319 317 320 328 323 312 315 317 316 319 317 315 318 319 319 324 333 337 335 333 332 332 340 348 326 307 310 314 313 314 315 313 314 314 314 314 313 313 313 313 313 313 313 313 313 313 312 312 312 312 312 312 311 311 311 311 310 310 310 310 309 309 309 309
317 317 317 316 315 316 317 317 318 320 319 317 315 318 320 319 325 322 311 312 315 314 318 318 320 324 318 313 318 317 317 320 317 318 323 321 322 328 337 339 337 336 335 334 338 342 324 309 309 313 313 314 313 313 314 313 313 314 313 313 313 313 313 313 313 313 312 313 312 312 312 312 312 312 311 311 311 311 310 310 310 310 310 309 309 308
321 320 316 317 317 314 312 316 319 318 318 320 321 322 317 312 321 323 315 320 320 317 320 318 316 320 316 316 322 317 314 317 318 320 322 320 321 324 329 334 339 337 334 331 328 327 314 305 309 314 314 314 314 313 314 312 313 313 312 313 312 312 313 313 313 313 312 312 312 312 312 312 312 311 311 311 310 310 310 310 310 310 310 309 309 309
321 320 315 315 318 316 314 317 320 316 313 319 323 319 318 319 322 319 315 322 321 317 323 323 316 314 314 318 322 316 316 322 321 319 321 320 318 317 319 326 333 334 331 328 330 334 319 305 310 315 314 315 315 313 313 313 312 311 312 312 312 312 312 312 312 312 312 312 312 312 312 311 312 311 311 311 310 310 310 310 310 310 310 309 309 309
317 317 314 314 314 316 317 318 320 320 315 315 315 313 318 325 324 320 316 318 318 316 320 324 321 317 317 319 320 315 318 324 322 319 321 321 319 316 315 318 323 328 331 330 335 343 323 306 310 315 314 315 314 313 313 312 311 311 311 311 311 312 311 312 312 312 312 312 311 312 311 311 311 311 311 310 310 310 309 309 310 309 310 309 309 309
314 312 312 314 314 316 319 320 319 320 318 317 317 316 318 319 318 320 318 316 320 321 321 321 319 323 326 320 317 316 317 318 321 322 323 323 321 318 316 318 320 325 330 327 330 335 318 305 311 315 314 314 313 312 312 311 311 311 311 311 311 311 311 311 311 311 311 311 311 311 311 311 310 310 310 310 310 310 309 309 309 309 309 309 309 308
315 312 316 320 318 318 320 317 316 318 318 317 317 317 318 318 318 318 317 315 316 318 322 320 315 322 331 322 316 319 319 317 319 319 320 325 327 326 326 326 325 326 326 321 325 328 313 305 310 312 312 312 312 311 311 310 311 310 311 311 310 310 310 310 310 311 311 310 311 311 310 311 310 310 310 309 309 309 308 308 308 308 308 308 308 308
318 319 323 324 321 320 317 313 312 316 317 316 317 318 318 317 317 319 321 320 316 313 316 318 317 319 322 318 318 323 323 321 319 320 324 327 329 328 326 325 323 324 323 323 326 321 307 306 310 309 310 311 310 310 310 310 310 310 310 310 309 310 310 310 310 309 310 310 310 310 310 310 310 309 309 309 309 308 308 308 308 307 307 307 307 308
317 319 320 321 322 323 319 315 314 313 314 317 318 319 319 318 321 328 328 322 320 318 316 317 317 316 318 321 324 327 325 321 319 322 326 324 325 326 324 324 326 325 322 324 326 314 302 304 307 306 308 309 308 308 308 308 309 309 309 309 309 309 308 308 309 308 309 309 308 309 309 309 309 309 308 308 308 308 308 308 307 307 307 307 307 307
314 317 318 319 321 322 321 321 320 316 316 319 320 319 319 321 323 323 320 316 317 322 322 319 318 317 321 327 327 326 325 321 317 320 324 323 326 329 326 325 327 327 325 326 329 322 313 309 305 304 306 306 306 307 307 308 308 308 308 308 308 308 308 307 307 307 307 307 307 308 308 308 308 308 308 308 308 308 308 307 307 307 306 306 306 306
314 318 318 317 317 317 317 319 320 320 317 318 321 320 318 320 320 317 318 318 317 320 320 318 316 315 316 319 319 321 324 320 316 319 321 321 326 331 331 329 326 325 326 325 324 322 318 310 303 302 304 304 305 306 306 306 308 308 309 309 308 308 308 307 307 307 307 306 307 307 307 307 307 307 307 307 307 307 307 307 306 306 306 306 306 306
321 320 315 313 314 313 313 316 321 323 320 318 320 320 318 318 317 318 320 320 318 319 318 315 315 315 315 317 318 320 324 323 320 321 321 323 328 333 335 331 324 319 317 316 314 315 314 310 305 302 303 304 304 305 305 306 307 308 309 309 308 307 307 308 308 307 307 306 306 306 306 306 307 307 306 306 306 306 306 306 306 306 306 305 305 305
323 319 313 314 314 311 312 317 322 322 321 319 319 319 318 317 317 318 319 317 317 319 317 314 315 315 314 317 320 323 325 325 324 325 327 328 331 331 328 325 321 316 312 310 311 312 313 311 306 300 300 302 302 304 305 306 306 307 307 307 307 307 307 308 308 307 307 306 306 306 306 306 306 306 306 306 305 305 305 305 305 305 305 305 304 305
320 315 314 315 314 312 313 319 323 320 319 320 318 318 318 317 317 317 317 316 317 317 315 315 317 317 313 314 318 319 319 320 320 321 322 323 325 325 323 322 322 320 316 313 311 309 308 308 304 299 299 301 301 303 304 305 306 306 307 307 307 306 307 307 307 307 306 306 306 306 305 305 305 305 305 305 304 304 305 304 304 305 304 304 304 304
317 319 319 315 313 314 314 319 323 320 318 318 317 317 317 315 316 317 316 316 316 316 316 316 318 317 313 312 315 316 315 315 314 313 315 318 320 322 323 323 324 323 319 314 311 308 308 308 303 297 298 300 300 301 301 302 303 304 305 305 305 306 306 306 306 306 305 305 305 305 304 304 304 304 304 304 304 304 304 304 304 304 304 304 304 303
314 321 322 315 314 315 314 316 321 320 318 318 318 317 316 315 316 315 316 316 316 316 316 316 317 316 313 313 316 315 315 313 312 313 315 315 316 319 320 323 325 322 316 312 310 309 309 309 301 295 297 299 298 299 299 299 300 302 303 304 304 304 304 304 304 304 304 304 304 303 303 303 303 304 303 303 303 303 303 303 303 303 303 303 303 303
315 319 319 317 317 317 316 317 317 315 314 315 317 317 316 315 315 315 315 315 316 317 317 317 317 315 314 315 315 314 315 315 314 316 314 314 317 320 322 326 324 318 313 311 310 309 310 309 302 296 296 298 297 297 298 298 298 300 301 302 302 303 303 302 303 302 302 303 302 302 302 302 302 302 302 302 302 302 302 302 302 301 302 302 302 302
317 318 320 320 319 318 318 317 315 313 313 315 316 316 314 314 314 314 314 314 315 316 317 317 316 314 314 315 315 316 318 317 315 315 314 317 321 321 322 323 318 313 311 310 309 308 306 303 299 296 296 297 296 296 296 297 297 298 299 300 301 301 301 301 301 300 300 301 300 300 300 300 300 300 301 301 301 301 301 301 301 301 301 301 301 301
318 317 319 319 318 318 318 316 315 315 316 316 314 313 313 313 314 314 314 314 315 314 314 315 314 314 314 315 315 316 317 316 317 317 316 317 320 319 317 315 312 310 308 307 307 305 300 297 296 296 296 296 295 295 296 296 296 297 298 299 300 300 300 300 300 299 299 299 299 298 298 298 298 298 298 299 299 299 299 299 299 300 300 300 300 300
318 317 318 318 318 319 317 315 316 317 317 316 315 315 313 311 312 314 314 313 314 313 314 314 313 314 314 314 315 315 316 317 316 315 312 310 311 314 313 310 309 308 307 306 305 302 296 295 296 295 295 295 295 295 295 296 297 299 299 299 300 300 300 300 301 300 300 300 299 298 297 296 295 296 296 296 297 297 298 298 298 299 299 299 299 299
317 316 317 319 321 320 318 316 317 319 320 318 318 318 315 312 313 313 313 313 312 313 314 313 313 313 312 316 319 317 315 313 309 308 307 305 307 309 310 309 308 306 305 303 301 298 296 295 295 295 294 295 294 295 296 297 298 299 299 299 299 300 300 300 301 300 300 300 299 298 297 296 295 295 295 295 295 296 296 297 297 298 298 298 298 298
316 316 316 318 320 318 319 318 316 318 320 319 319 319 315 314 314 314 314 314 312 312 312 312 313 312 312 319 321 313 308 310 310 307 305 304 305 306 305 304 303 302 299 297 296 296 295 294 295 294 294 294 294 295 296 297 298 298 298 298 298 298 298 299 299 298 298 298 298 298 297 296 295 295 295 295 294 295 295 295 296 297 297 297 297 297
315 316 316 317 318 317 317 318 317 319 319 316 317 318 316 315 315 314 314 316 314 313 311 311 313 312 313 320 318 309 308 314 315 312 307 304 304 304 301 298 297 297 296 295 295 295 295 295 295 294 294 294 294 294 295 296 297 297 296 296 295 295 295 295 295 295 296 297 297 296 296 296 295 295 295 294 294 294 294 295 295 296 296 296 297 297
315 317 317 316 317 318 318 318 318 319 318 317 320 322 320 318 317 315 315 316 316 315 313 311 312 312 314 318 313 308 312 316 316 313 309 304 302 302 301 298 295 295 296 295 295 295 294 295 295 294 294 294 293 293 294 294 295 294 294 293 292 292 292 292 293 293 294 295 295 295 295 294 294 294 294 294 294 294 294 294 294 295 295 295 296 296
313 315 316 316 317 318 318 318 318 318 320 323 326 324 319 316 317 319 319 317 316 318 316 313 312 312 314 315 309 309 314 316 315 313 307 303 300 298 298 297 295 295 295 295 294 294 294 294 294 294 293 292 292 292 292 293 293 292 292 291 291 291 290 290 291 292 293 294 294 294 294 293 293 293 293 293 293 293 293 293 293 293 294 294 295 295
313 314 315 316 317 317 318 319 318 318 323 327 324 320 316 315 317 321 319 318 322 324 318 314 314 315 316 313 309 311 313 311 311 308 303 301 300 296 294 295 294 294 294 294 293 293 293 293 292 292 291 290 290 290 291 292 291 290 290 290 289 289 289 290 291 292 293 294 295 294 294 293 292 292 292 292 292 292 293 293 293 293 293 293 293 293
316 315 315 316 317 317 317 319 318 319 325 325 318 313 313 316 319 320 314 312 319 322 315 312 316 317 314 311 310 310 307 302 302 302 300 300 301 297 294 293 294 294 293 292 292 292 292 291 290 290 290 289 288 289 289 289 289 288 288 289 288 288 288 289 290 292 293 294 294 294 294 293 292 292 292 292 292 292 293 293 293 293 293 292 293 292
317 317 316 316 317 317 317 319 319 320 321 318 313 312 313 315 320 322 316 309 308 309 309 309 311 310 309 308 306 303 301 299 299 300 299 299 299 296 293 292 292 292 291 291 291 290 290 290 289 288 288 287 287 287 287 287 287 287 287 287 286 287 288 289 290 291 293 294 294 294 295 294 293 293 293 293 292 292 292 292 292 293 292 292 292 292
317 318 318 317 317 318 319 319 319 319 317 315 315 317 317 315 315 319 321 314 305 303 305 306 304 303 304 304 301 299 299 300 299 299 298 298 297 294 292 291 290 290 289 289 289 288 288 288 287 287 286 286 285 285 285 286 286 286 286 286 286 287 288 290 291 292 293 294 294 294 294 295 295 294 294 293 292 292 292 292 292 292 292 291 291 291
316 316 317 318 317 316 316 316 314 313 312 311 312 314 314 310 307 309 313 311 306 304 305 305 302 301 300 300 300 300 300 299 299 298 297 296 295 293 291 289 289 288 288 287 287 287 286 286 285 285 285 285 284 284 284 284 285 285 285 285 285 286 287 288 290 291 292 293 293 293 293 293 295 295 294 293 292 291 291 292 291 291 291 291 290 290
314 312 314 317 316 313 312 310 308 308 309 307 305 305 304 304 304 306 308 307 305 304 303 302 301 300 299 299 300 300 298 298 297 297 295 294 292 291 289 288 287 286 286 285 285 284 284 284 284 284 284 284 283 283 283 283 282 282 283 283 284 284 285 286 288 289 290 291 291 291 291 291 292 293 294 294 293 292 291 291 290 291 291 290 290 290
312 311 313 316 316 316 314 310 307 307 307 305 304 303 302 302 303 304 305 304 303 302 301 299 299 298 298 300 300 299 297 296 295 294 293 292 291 289 287 286 285 284 284 283 283 282 282 282 282 281 282 283 282 282 282 281 281 281 281 281 282 283 284 285 285 285 286 288 288 289 289 288 288 289 290 291 292 292 292 291 290 290 290 289 289 289
313 312 313 315 315 314 311 307 304 304 303 302 304 304 304 303 301 300 299 298 298 297 297 296 297 298 298 298 297 296 295 293 293 292 291 289 288 286 285 283 283 282 282 281 280 280 279 279 280 279 280 280 280 281 280 280 279 279 279 279 279 280 282 283 282 282 283 284 284 286 286 286 286 286 287 288 288 289 290 290 290 289 289 289 289 289
311 311 312 312 311 309 307 304 303 305 305 304 304 303 300 298 298 296 295 295 295 295 294 293 292 293 294 294 293 293 292 291 290 290 288 286 285 283 282 281 280 280 280 279 278 277 277 277 278 278 278 279 279 279 279 279 279 278 277 277 278 278 279 280 280 280 280 280 281 282 283 283 284 284 285 285 286 286 288 289 288 288 289 290 290 289
310 311 311 310 311 312 310 307 306 308 310 307 303 300 297 295 295 295 295 295 294 292 292 291 289 286 287 288 288 289 289 288 287 287 285 283 282 280 279 278 278 278 277 276 276 275 275 275 276 276 277 277 277 277 278 278 278 277 276 276 277 277 278 278 278 278 278 278 279 280 280 281 282 283 283 284 284 285 286 288 288 288 288 289 290 289
310 312 311 311 312 314 312 308 306 309 313 309 302 298 295 294 295 295 294 293 291 289 289 290 288 286 284 282 283 285 286 285 284 284 283 280 279 278 276 276 276 276 275 274 273 273 273 274 275 275 276 276 276 275 275 275 275 275 274 274 275 276 277 277 276 277 277 278 278 279 279 280 280 281 282 283 283 284 284 286 288 288 288 288 289 289
Wind_Speed
3 4 3 5 7 8 8 6 6 5 6 8 6 5 4 4 2 3 2 5 0 4 4 4 5 8 10 12 13 11 5 4 9 10 10 11 10 10 10 10 8 8 11 15 16 16 15 17 18 19 23 25 26 27 28 29 31 32 32 33 34 34 34 35 35 35 35 34 33 32 33 33 33 33 33 33 34 34 34 34 35 36 34 35 38 38
4 5 7 7 8 7 6 7 7 7 7 6 6 5 2 2 2 2 1 5 3 1 3 2 3 9 11 12 12 10 9 9 11 11 12 13 11 11 10 10 7 7 9 12 15 16 15 14 15 17 19 23 26 28 29 30 31 32 32 33 33 33 34 35 35 35 35 34 33 32 33 33 31 31 32 32 34 34 34 34 34 35 34 33 34 35
2 4 8 6 5 7 6 5 8 7 6 5 4 6 3 2 2 3 2 4 5 0 4 5 5 9 10 10 12 12 11 12 10 9 10 11 11 12 9 6 7 7 8 9 11 15 16 14 13 16 19 23 26 27 28 29 30 30 31 32 32 33 34 35 35 35 34 33 31 30 30 30 30 30 30 31 32 32 33 34 34 34 34 34 33 32
3 6 6 5 7 9 6 3 8 7 5 4 4 5 3 2 1 1 3 4 4 2 1 3 5 8 8 7 11 12 11 10 8 7 10 9 12 14 6 3 7 8 9 9 8 11 14 13 14 17 20 22 23 24 26 28 29 30 31 31 31 32 33 33 33 33 33 31 29 28 27 26 27 28 28 29 30 31 32 33 34 34 35 36 36 35
5 5 2 7 6 8 7 4 7 7 2 1 3 6 4 3 4 3 2 2 3 4 3 4 5 7 5 5 8 8 5 6 5 5 9 9 10 10 5 4 8 8 8 8 8 8 9 13 15 17 19 19 21 24 26 27 29 30 30 30 30 30 31 31 31 32 32 30 29 27 25 23 23 24 25 26 29 31 32 32 33 33 34 34 35 35
4 3 4 8 5 6 8 5 5 7 3 1 3 6 7 7 7 3 2 4 4 4 4 4 3 6 6 5 7 6 6 7 5 5 11 11 5 3 4 7 9 7 7 7 7 7 8 12 13 13 16 18 21 23 25 26 27 27 27 27 28 28 29 29 30 30 31 31 29 28 26 24 23 24 26 28 31 32 34 35 34 33 32 31 31 30
1 2 4 7 6 6 7 5 5 6 6 2 4 5 6 7 8 6 4 4 1 3 3 4 2 5 7 5 8 7 8 11 10 9 13 11 3 2 5 7 6 6 6 6 7 7 7 9 10 12 16 18 20 20 21 23 23 24 24 24 25 26 27 27 28 29 30 31 31 30 30 30 29 28 29 31 31 32 33 35 36 35 33 32 31 29
2 3 5 6 7 6 6 4 5 6 8 3 3 6 8 8 8 6 5 4 2 3 4 4 3 2 6 6 7 6 7 11 12 12 14 9 5 4 6 6 6 6 6 6 7 6 6 8 11 14 16 17 17 16 17 20 20 21 22 21 22 23 25 26 27 29 30 32 32 33 32 32 32 32 32 31 29 30 31 32 35 36 36 35 34 32
1 4 4 5 6 4 4 4 5 8 6 3 3 7 7 7 7 5 6 4 1 1 4 4 2 2 6 7 5 4 5 9 11 12 12 9 7 6 7 6 6 7 7 6 6 6 7 9 12 12 11 12 13 13 14 16 17 18 19 20 20 21 23 25 26 28 30 32 33 33 33 33 34 34 33 30 28 28 28 30 32 34 36 37 36 37
1 3 6 6 5 4 3 1 3 5 3 4 6 8 6 6 6 5 5 4 3 2 4 5 2 2 5 7 4 2 3 7 9 9 9 9 8 6 6 6 5 5 4 4 5 6 7 7 7 6 7 8 9 11 12 13 14 16 17 19 19 20 22 23 25 27 29 30 31 32 33 34 34 33 31 29 27 27 27 28 30 31 33 35 37 37
2 1 1 3 3 5 4 3 1 2 4 8 7 7 7 6 5 4 3 4 3 3 6 6 3 1 3 6 4 3 4 6 5 6 7 7 7 6 4 4 5 3 1 1 3 4 5 3 3 4 5 6 6 9 11 12 13 15 16 17 18 19 20 22 24 25 27 29 31 32 33 34 34 32 30 29 28 27 27 28 29 29 31 32 34 34
4 3 0 0 1 4 6 5 4 4 5 7 5 5 4 4 4 4 4 3 1 5 6 5 2 2 3 6 5 5 7 6 5 5 7 7 8 7 3 2 3 2 1 1 2 3 2 1 2 2 5 5 6 8 9 11 12 13 14 15 17 18 19 21 23 24 26 28 30 31 32 33 33 32 31 31 30 30 29 29 29 28 29 30 31 32
2 1 2 3 1 4 6 5 4 5 4 5 5 6 4 2 2 2 3 0 3 6 4 3 1 2 6 7 8 10 10 8 7 7 7 7 6 7 4 2 2 3 1 1 2 4 4 3 2 2 3 4 6 8 9 11 12 13 13 14 15 17 18 20 22 24 25 27 29 30 31 32 32 32 32 31 32 31 31 30 29 28 28 29 31 32
1 4 3 1 1 2 5 6 4 1 1 4 5 5 4 3 2 2 4 2 4 4 3 3 2 3 5 5 9 13 10 6 6 7 8 7 5 5 6 4 5 6 4 1 1 3 5 4 3 3 5 6 7 9 9 10 11 12 13 13 14 15 16 19 21 23 25 26 28 29 30 31 31 32 32 32 32 32 32 31 30 29 29 29 30 31
4 4 3 4 2 3 5 4 6 6 3 3 4 5 5 5 4 4 4 3 4 3 3 4 1 3 3 2 7 10 8 6 6 6 6 6 6 5 6 6 5 6 6 3 2 3 5 6 5 5 6 8 9 9 9 9 11 12 14 13 13 13 15 17 19 21 24 25 26 27 29 30 31 32 32 32 33 32 32 32 31 31 30 29 30 30
4 5 4 2 2 4 5 2 4 7 2 1 2 5 3 4 5 3 3 5 3 1 2 2 3 5 4 6 9 7 7 8 7 6 5 4 5 4 4 5 5 6 6 4 3 4 7 7 7 7 7 8 9 10 10 9 11 13 14 15 14 13 13 15 18 20 22 23 25 26 28 29 30 31 32 32 32 32 32 32 32 32 31 30 29 29
3 3 4 3 2 2 2 2 2 3 3 2 3 3 5 4 7 5 2 1 3 1 3 1 4 5 4 6 9 6 8 10 8 8 7 4 4 6 5 6 6 7 5 4 4 6 6 6 8 8 7 7 8 9 8 9 11 14 14 15 16 14 13 14 16 18 20 22 24 26 28 29 30 31 32 32 33 32 32 32 32 32 31 30 29 28
5 1 4 2 1 2 1 1 4 3 3 5 3 5 4 2 4 4 2 2 4 2 4 1 5 5 2 4 7 5 5 10 9 9 9 7 2 5 5 6 7 7 4 4 7 7 6 7 9 8 6 6 7 8 8 9 12 15 15 16 17 16 15 14 14 16 18 20 23 26 27 29 30 30 31 32 32 32 31 31 32 31 31 31 29 29
5 3 4 1 2 3 4 3 2 4 3 4 4 3 4 3 2 2 2 2 1 3 4 4 4 4 4 5 5 2 7 8 9 9 9 10 5 3 4 6 7 7 5 5 7 6 5 8 10 8 5 5 7 8 9 11 14 15 15 15 17 17 16 15 16 16 18 20 22 25 27 28 29 30 31 31 31 31 32 32 32 32 32 31 30 30
4 4 3 2 1 2 4 1 4 1 3 3 2 2 3 2 4 3 3 4 3 3 3 4 4 3 6 6 6 8 9 8 8 7 7 9 6 4 6 7 7 7 7 7 7 5 5 8 10 7 5 5 7 8 10 12 14 14 13 14 15 17 17 17 18 18 18 20 21 24 26 28 29 29 30 31 31 32 33 33 33 33 33 32 31 31
2 3 4 2 3 1 2 3 7 7 5 3 3 4 2 1 2 2 1 3 4 4 3 2 4 6 6 4 8 11 9 8 8 6 7 8 7 5 6 6 6 7 7 6 5 4 5 9 10 6 4 5 6 9 10 12 13 12 11 12 14 16 17 18 19 19 19 20 21 23 26 27 28 28 29 30 31 32 33 33 33 33 32 33 32 32
3 2 4 2 0 4 4 3 4 6 6 6 6 7 7 4 4 3 2 1 2 3 4 3 4 8 6 4 7 8 7 7 7 5 6 7 7 6 6 5 5 5 5 5 5 4 5 8 8 3 3 4 7 10 12 12 12 11 11 12 13 15 16 17 18 18 19 20 22 24 25 26 27 27 29 30 31 32 33 33 33 33 32 33 33 32
3 4 4 3 4 5 4 3 1 3 2 3 4 5 6 5 5 6 5 3 2 1 2 4 2 8 5 4 6 6 5 6 6 6 6 6 6 5 5 5 4 4 5 5 4 3 5 6 5 4 5 7 10 12 12 12 11 11 12 13 13 15 15 16 17 18 19 20 22 24 24 25 26 27 28 30 31 32 32 33 32 32 33 33 33 33
2 4 4 1 3 3 4 4 3 2 2 1 4 3 5 4 4 5 5 4 4 3 3 3 3 7 4 1 4 6 5 4 4 6 6 1 2 2 2 1 2 1 1 1 2 2 3 3 3 6 8 10 11 11 10 10 10 10 11 12 13 15 16 16 17 18 19 20 22 23 24 26 26 26 28 30 31 31 32 32 32 32 32 33 33 33
4 3 4 3 1 3 4 3 3 2 2 4 4 3 5 5 6 4 2 3 2 5 7 5 5 8 4 3 3 5 5 3 4 6 4 1 3 4 3 3 4 4 4 4 3 3 2 3 5 7 8 8 9 10 12 12 12 11 11 12 13 14 15 16 16 18 19 20 22 23 24 25 25 26 28 29 30 31 31 31 31 32 32 32 33 33
6 4 5 6 6 5 6 6 5 4 3 1 2 5 7 8 10 6 3 4 5 6 7 7 8 6 3 4 4 4 3 2 5 5 3 2 2 3 3 3 4 5 5 4 4 4 3 3 4 6 8 10 12 14 14 14 13 13 14 15 15 16 16 16 16 17 18 19 21 23 24 24 25 26 28 28 29 30 31 31 31 31 32 32 33 34
4 3 6 9 11 12 12 9 4 7 7 5 7 9 9 10 12 9 4 5 7 3 4 11 12 7 6 5 5 5 4 5 5 2 3 5 5 5 5 4 3 3 3 3 4 3 3 4 5 7 10 12 13 14 14 15 16 17 17 17 17 17 17 16 16 17 18 19 21 23 23 24 25 26 27 28 29 29 30 30 31 31 32 32 33 34
4 5 9 10 13 14 11 7 5 9 11 13 14 12 11 12 13 11 10 12 8 4 7 14 9 9 13 9 8 9 7 6 6 6 6 6 5 4 3 3 2 2 2 2 3 2 2 2 1 3 7 11 14 16 16 17 17 17 17 17 17 17 17 17 17 18 18 19 20 22 23 23 24 25 26 27 28 28 29 30 31 32 32 33 34 35
5 7 9 9 13 15 7 5 6 9 10 12 14 15 15 15 15 15 18 18 11 8 15 13 11 13 19 11 10 12 9 7 9 8 5 4 4 2 2 2 0 1 1 2 2 2 3 3 2 3 10 15 18 19 18 18 17 17 17 17 18 18 17 17 18 18 18 19 20 21 22 23 23 24 25 26 27 27 28 29 30 31 32 33 35 36
4 5 6 7 10 14 8 6 7 9 8 8 11 14 15 16 18 20 21 22 18 15 17 12 9 15 18 9 10 11 9 8 8 5 3 5 6 5 5 5 3 3 3 3 2 1 1 2 5 10 14 17 18 19 18 18 18 18 18 18 18 18 18 18 18 19 18 19 20 21 21 22 22 23 25 26 26 27 27 28 29 30 32 33 35 35
3 4 3 6 5 11 8 7 8 9 9 8 9 10 12 14 17 19 20 20 16 12 14 13 10 14 12 6 8 10 7 6 6 6 7 10 10 8 7 5 5 5 4 3 2 3 5 6 8 11 14 15 17 17 17 17 18 18 19 19 19 18 18 17 17 18 18 19 20 20 21 21 22 23 24 25 25 26 26 27 28 29 31 32 33 34
4 3 1 5 4 7 6 9 9 5 3 4 7 8 12 13 15 17 16 14 11 12 14 13 11 13 9 6 7 7 6 7 9 10 10 10 8 7 7 7 6 6 5 3 4 5 6 6 7 9 11 13 14 15 15 17 18 19 20 20 19 19 18 17 17 18 18 20 21 21 22 22 22 23 24 24 25 26 26 27 28 28 30 31 32 33
6 5 2 4 5 7 6 7 8 6 4 4 9 13 17 16 15 14 9 9 12 13 12 11 12 16 12 7 6 6 7 10 12 11 9 8 7 6 6 7 6 6 5 4 4 5 5 5 6 7 9 10 11 12 13 14 16 18 18 19 19 19 19 19 18 18 19 20 20 21 22 22 23 24 25 24 24 25 25 26 27 28 29 31 31 32
6 7 5 4 5 7 4 7 8 5 5 8 11 15 18 18 17 15 11 14 18 14 11 12 12 14 10 7 9 10 9 8 7 6 5 5 6 6 6 6 6 5 5 4 4 3 3 4 6 8 9 9 9 10 12 13 15 17 17 18 20 20 20 20 20 20 21 22 22 22 22 23 23 24 25 25 24 24 25 26 27 28 28 29 30 31
8 7 5 4 3 3 3 8 5 8 10 10 10 11 15 19 19 18 18 19 17 14 14 14 14 15 13 9 8 10 8 4 2 2 1 2 6 8 7 6 5 5 5 3 3 3 3 5 7 9 9 9 10 12 14 16 18 19 19 21 22 22 23 24 24 25 25 26 26 26 26 25 25 26 26 26 26 25 25 26 27 27 28 29 30 31
9 8 4 3 3 2 3 5 8 7 3 4 5 6 10 13 13 12 13 13 12 12 14 17 20 21 15 7 3 3 5 5 4 2 2 2 4 7 7 7 6 5 5 4 3 3 4 6 7 8 9 10 12 15 17 18 19 20 21 22 23 24 25 26 27 29 29 29 30 30 29 29 28 28 28 28 27 27 27 27 28 28 28 29 30 31
7 8 6 5 5 5 6 7 7 6 4 2 5 6 7 9 11 11 11 12 14 16 17 18 22 20 11 5 5 5 6 5 3 2 3 2 1 4 5 6 6 6 5 4 4 4 6 7 7 7 8 10 13 16 17 18 19 20 21 22 23 24 25 27 28 29 29 30 31 31 31 31 30 30 30 29 29 29 29 29 29 29 28 29 30 31
2 5 7 9 7 7 9 9 7 8 9 10 11 8 5 8 11 12 10 11 13 16 18 17 18 16 10 6 7 6 6 4 3 5 5 4 3 3 4 4 5 6 6 5 6 7 9 9 9 9 9 11 14 15 16 17 17 18 20 21 22 23 24 26 27 28 28 29 29 30 30 30 29 29 30 29 29 29 30 30 30 30 29 29 31 32
1 1 2 7 7 7 9 10 8 8 9 12 12 7 5 8 9 9 5 11 11 12 14 14 14 16 12 9 9 8 7 5 9 7 6 6 5 4 5 4 5 6 7 7 8 9 9 9 9 9 11 13 14 15 15 16 16 17 18 19 19 21 24 25 26 27 27 27 28 28 28 27 27 27 27 28 28 28 29 30 30 30 30 30 31 33
2 1 1 6 9 8 9 9 7 6 6 8 9 6 6 9 12 10 7 13 8 8 11 13 15 17 12 10 10 9 9 9 9 6 8 8 6 5 5 5 6 6 8 9 9 9 9 9 9 9 11 13 14 14 15 15 16 16 17 17 18 21 24 25 26 26 26 27 27 27 26 25 25 25 26 27 28 28 28 28 29 29 30 31 32 33
3 2 4 8 10 10 11 10 6 4 5 6 6 5 7 9 10 8 12 8 4 8 10 13 16 14 9 11 10 9 7 5 3 8 10 8 7 6 6 8 8 8 9 9 9 9 9 9 9 9 10 12 13 14 16 16 16 16 16 17 20 23 25 25 26 26 26 27 27 27 26 25 25 25 25 26 27 28 28 28 28 28 28 30 31 32
6 4 4 6 8 8 9 9 7 6 6 6 5 4 7 8 7 10 7 1 4 8 7 9 11 9 9 11 9 6 4 4 7 11 10 9 8 6 6 9 9 9 9 9 9 10 10 9 10 10 11 13 14 16 17 16 15 16 17 19 21 24 25 26 27 28 28 29 29 29 28 27 26 26 26 26 26 27 29 28 28 28 27 28 29 30
8 6 5 6 7 6 6 8 8 7 6 8 10 3 5 7 7 6 3 3 1 5 5 4 5 6 8 8 6 7 8 8 9 10 9 8 7 6 7 9 9 9 9 9 10 11 10 10 11 10 11 14 16 17 17 17 16 17 19 20 23 25 25 26 27 28 29 30 30 30 30 29 28 28 27 27 26 26 28 28 28 28 27 26 27 28
6 7 6 6 7 7 7 8 6 3 4 9 9 5 7 6 4 5 6 3 1 3 4 4 4 4 8 10 10 9 9 9 9 9 8 7 6 6 7 8 9 9 9 9 10 11 11 12 12 11 12 15 17 18 19 20 20 21 22 23 24 25 25 26 27 28 29 30 30 31 31 30 29 28 27 27 26 26 27 28 27 27 26 25 25 25
5 5 4 5 5 5 5 5 2 1 2 3 2 2 4 2 2 4 6 6 4 4 4 5 6 5 8 12 12 10 8 8 8 7 7 7 6 6 7 8 9 9 9 9 10 11 11 11 12 11 12 15 18 20 21 22 22 23 23 23 24 25 26 27 28 29 30 31 31 31 31 31 30 29 28 27 26 26 27 27 27 28 27 25 24 23
2 1 0 2 2 1 2 2 1 2 3 3 3 1 0 0 1 4 7 6 5 4 4 6 8 8 8 10 11 9 7 7 8 6 6 6 6 6 7 7 8 8 8 9 10 10 9 9 11 12 14 16 19 20 21 22 22 21 21 22 23 24 25 27 28 29 30 30 31 31 31 31 31 30 30 29 28 27 27 26 26 28 28 26 24 23
2 0 1 1 4 4 3 3 2 1 2 1 2 2 2 2 2 2 5 6 6 5 5 6 8 8 7 8 11 10 8 8 8 6 4 5 5 5 5 5 6 7 7 8 9 9 9 10 12 14 16 17 19 21 21 21 20 19 18 19 21 23 25 26 27 28 28 29 30 31 30 31 31 32 32 32 30 30 30 28 26 26 27 26 25 24
1 2 1 1 3 4 1 2 1 1 2 1 1 1 3 3 3 5 5 6 7 8 7 6 7 7 7 7 9 11 10 8 8 7 5 4 3 3 4 4 5 5 7 8 8 8 10 12 13 15 16 17 19 20 20 20 20 19 17 17 21 24 26 26 26 26 27 27 28 29 29 29 30 31 32 33 32 31 31 30 28 26 27 27 25 25
2 2 1 0 0 1 1 2 2 1 2 3 2 1 2 2 5 7 7 8 10 9 8 7 6 5 6 6 7 10 11 8 6 7 7 4 3 3 3 3 3 4 6 7 8 9 11 12 13 14 15 16 18 19 19 19 19 18 16 19 23 26 27 27 27 26 26 26 26 27 28 29 29 30 30 32 33 33 32 32 29 27 30 30 27 24
3 3 3 3 1 2 3 4 4 2 0 4 3 2 3 2 4 7 8 8 9 8 8 8 7 6 7 6 6 9 10 8 7 7 7 5 4 3 3 3 3 4 6 7 8 10 11 11 10 11 13 14 16 18 18 18 17 15 17 22 26 27 27 28 28 27 25 26 26 26 27 28 29 29 29 29 31 33 34 35 33 29 29 31 30 27
4 5 5 4 4 5 4 7 7 3 0 3 5 7 5 4 6 8 7 7 8 8 8 8 7 6 6 7 7 8 9 9 8 8 7 5 5 4 4 3 3 4 6 8 9 9 10 9 8 10 11 13 14 15 16 15 14 14 20 25 27 27 27 27 27 28 28 28 29 28 27 27 27 28 28 28 28 28 30 34 37 36 32 29 28 28
Wind_Direction
91 124 178 185 186 191 188 165 136 142 138 137 131 114 139 163 230 250 276 305 192 144 249 239 237 263 268 273 275 280 299 285 272 274 269 264 263 261 255 253 247 242 255 265 266 261 257 256 255 249 242 235 231 231 229 228 229 229 229 227 226 226 223 221 220 220 221 221 221 222 224 226 228 229 230 232 233 233 233 233 233 234 234 229 223 220
83 157 210 208 193 176 156 140 111 92 88 100 130 125 114 169 222 256 241 315 343 169 270 353 310 267 260 268 273 278 287 269 251 251 257 259 260 259 256 256 251 248 264 272 272 266 259 253 248 242 235 228 226 226 225 225 227 227 226 226 227 225 222 221 222 221 221 222 222 222 223 226 228 229 230 231 233 234 235 235 235 236 238 235 225 218
100 211 228 213 167 114 96 111 98 86 88 87 113 127 134 193 240 291 297 330 4 84 271 354 343 274 261 261 265 263 259 257 249 239 248 256 260 261 255 246 241 245 258 265 269 269 263 254 244 235 229 226 226 225 223 224 225 225 225 226 226 225 223 222 222 222 222 222 223 224 225 227 228 230 232 232 234 235 236 237 236 236 236 236 234 230
172 247 237 175 144 118 92 86 96 86 82 89 106 129 165 239 148 239 291 329 6 65 258 347 325 282 277 275 267 260 255 266 273 259 254 247 250 260 262 233 231 231 242 251 259 267 265 255 240 230 226 224 222 221 222 221 222 223 225 226 225 224 224 223 222 221 221 221 222 224 227 230 232 234 235 235 235 235 235 234 233 234 234 235 237 238
198 259 166 120 130 132 120 118 125 121 89 74 137 138 160 199 173 188 273 339 359 14 41 25 331 293 302 317 282 277 298 292 286 295 281 259 249 267 293 267 245 233 231 240 248 257 255 242 231 225 223 221 218 219 222 222 223 225 225 226 225 225 224 223 222 220 220 220 221 222 225 229 234 237 237 235 234 234 234 233 231 230 230 231 231 232
220 266 130 118 99 111 127 153 170 151 132 272 214 173 172 173 165 161 51 58 34 348 353 24 347 289 312 320 275 286 333 306 298 325 291 273 259 263 280 267 260 255 245 241 243 242 243 237 228 221 218 216 219 223 225 225 225 226 227 226 225 225 224 223 222 221 220 221 222 223 224 226 229 232 234 234 234 233 233 234 234 231 229 228 228 227
220 1 93 125 116 106 123 159 196 153 124 199 230 167 147 132 129 136 112 89 107 252 312 38 126 264 309 296 266 293 325 303 298 299 281 279 294 181 230 250 259 269 265 260 253 244 246 238 218 213 215 216 222 226 226 226 226 226 227 227 226 225 225 225 223 222 222 223 224 227 229 231 231 232 236 238 238 237 235 235 236 235 232 231 230 230
155 73 69 96 97 103 127 165 196 146 125 201 220 124 121 117 128 142 116 103 199 234 327 13 121 235 294 264 264 314 324 299 291 282 275 285 304 260 250 254 254 255 250 254 260 256 248 229 214 215 218 219 224 228 225 224 225 226 227 228 229 228 228 228 227 225 226 226 228 230 232 235 236 238 242 243 242 240 238 237 236 237 236 236 236 237
114 143 162 122 95 121 175 202 180 128 112 225 185 117 118 119 126 123 99 93 27 2 315 314 128 188 273 271 296 343 314 287 278 272 278 292 292 270 268 272 259 249 241 239 250 255 242 225 222 224 224 225 227 228 226 225 226 226 228 230 229 230 230 230 229 229 229 230 232 233 234 236 239 242 244 244 245 243 240 238 238 238 238 239 239 241
45 185 191 136 124 176 195 228 163 121 97 178 136 96 77 76 80 78 89 98 45 5 255 251 189 190 267 285 309 347 272 262 265 273 281 287 286 275 278 281 272 264 252 237 243 260 257 240 237 238 232 232 230 227 226 226 227 227 228 229 230 232 232 233 232 232 232 232 233 234 235 238 241 242 242 243 244 243 241 241 241 241 240 240 240 241
321 283 189 112 142 182 143 89 87 93 125 137 111 75 60 37 37 47 53 81 63 298 255 247 231 166 272 280 257 216 218 223 247 293 297 310 328 317 290 277 272 269 265 266 262 273 271 242 236 242 228 225 223 222 223 224 227 228 229 229 231 235 235 235 236 235 235 235 235 236 237 239 241 242 241 239 240 240 240 241 242 243 244 244 243 243
354 28 322 284 139 131 98 71 36 29 89 109 91 88 84 4 10 25 359 43 122 255 260 263 254 156 223 260 251 245 253 232 217 267 287 312 340 330 303 240 250 246 114 6 324 311 318 111 130 224 225 220 220 221 221 223 225 225 227 229 232 236 238 238 238 238 239 238 238 239 240 241 243 242 240 239 240 240 240 241 243 244 245 245 245 244
14 46 296 317 261 145 110 83 44 8 24 76 94 102 98 359 7 351 311 339 219 246 269 284 252 205 233 246 258 267 268 246 216 221 248 265 302 320 309 241 277 296 216 102 14 336 336 6 23 311 265 247 237 234 229 226 225 223 224 228 233 239 241 242 241 241 242 241 241 242 242 243 244 243 242 241 242 242 242 243 243 243 244 244 244 243
311 309 310 37 294 200 142 131 127 211 218 131 137 129 128 128 107 255 266 280 258 258 295 295 251 255 270 261 251 256 259 248 225 224 235 243 255 288 298 303 318 305 275 220 350 326 315 312 320 307 289 282 265 251 242 237 234 229 226 226 233 242 244 244 244 244 244 245 246 246 245 246 245 244 244 243 244 244 245 245 245 246 245 245 245 245
180 271 230 170 227 197 171 175 151 144 149 174 161 131 145 158 157 203 217 210 245 274 306 298 257 202 226 277 256 253 270 282 264 251 248 248 241 250 285 298 296 282 272 277 300 289 277 271 272 276 275 276 272 260 250 248 245 240 235 231 231 238 242 245 247 247 247 249 250 249 248 248 247 247 247 247 247 247 247 247 247 247 247 248 249 250
162 246 259 272 274 162 170 226 117 109 108 232 124 104 157 185 140 142 184 175 178 320 298 260 240 213 214 281 280 281 301 296 286 289 281 251 222 205 240 253 249 256 260 272 280 260 258 257 255 259 261 264 266 259 251 252 252 248 244 240 237 238 242 247 250 250 252 253 253 252 251 250 250 249 249 248 249 249 249 249 249 249 249 250 253 254
154 260 305 341 343 96 165 250 92 118 175 165 131 170 209 173 113 116 216 53 82 258 272 229 252 288 326 294 290 312 305 296 300 299 286 254 185 171 197 215 229 246 247 260 263 245 250 262 258 253 254 262 266 264 263 261 258 253 248 245 245 243 242 247 251 254 255 255 255 254 253 252 251 250 250 250 251 251 251 250 250 250 251 252 254 255
155 196 320 35 98 323 291 115 50 33 120 125 174 208 188 122 88 109 181 1 43 243 274 272 245 285 324 278 315 345 274 276 289 285 283 282 216 168 202 225 236 249 254 265 262 255 260 264 259 253 251 263 276 283 283 275 263 254 248 247 248 249 249 253 257 258 258 258 258 258 256 255 254 254 254 254 254 254 252 250 249 250 250 251 254 254
139 144 314 19 160 305 349 97 71 356 55 127 183 177 119 141 172 96 150 181 129 232 278 300 277 265 207 230 301 291 218 238 261 267 274 277 264 172 195 237 247 255 262 261 257 263 264 252 249 249 253 269 284 288 283 274 264 254 248 248 249 253 259 262 263 262 262 261 261 262 261 259 258 257 257 256 256 254 252 250 250 250 251 252 253 253
141 151 258 311 243 302 11 120 193 222 39 56 97 102 82 135 166 159 156 165 170 195 253 307 318 271 224 215 214 222 223 215 225 249 263 267 263 205 200 221 233 238 238 236 237 246 261 256 247 236 248 277 285 286 284 277 270 262 258 257 257 260 264 265 265 266 268 267 266 266 265 263 261 259 259 258 256 255 253 252 252 251 252 254 253 251
139 166 207 305 340 212 199 219 190 168 146 126 128 157 184 79 111 157 144 122 139 160 191 279 298 267 247 208 192 216 234 220 212 235 261 270 273 249 226 217 221 231 234 234 244 269 286 270 253 230 239 274 290 298 296 287 282 280 277 274 271 270 270 271 272 273 276 276 273 270 268 266 265 262 261 260 258 256 255 255 253 253 254 254 253 251
154 166 168 143 300 205 222 260 188 175 173 169 179 190 184 157 127 153 233 227 121 146 169 178 258 265 252 205 199 214 225 221 212 216 251 277 282 282 285 263 238 241 252 257 257 264 273 271 270 274 287 295 311 314 307 300 298 300 299 293 284 279 278 279 279 280 282 281 277 273 272 270 268 266 264 261 259 258 257 256 255 255 254 253 253 253
131 112 122 156 221 215 240 288 200 187 156 147 209 204 173 165 143 153 204 221 128 168 155 121 253 273 261 197 207 227 231 231 220 203 224 267 273 278 295 284 248 226 240 253 252 260 284 295 308 338 345 338 335 329 325 323 321 318 315 307 297 294 296 294 290 288 287 283 280 278 275 272 269 267 265 262 260 259 259 259 258 256 254 253 253 253
119 115 127 207 301 310 312 335 21 56 82 185 242 189 156 181 150 143 180 173 154 193 155 104 263 270 280 219 224 254 269 273 242 208 198 242 329 322 328 28 67 72 282 309 326 312 306 316 355 5 359 350 345 346 350 352 351 342 330 320 314 314 315 310 302 298 293 288 285 282 277 273 271 268 266 264 263 262 262 262 260 258 256 254 254 254
189 167 132 118 16 348 334 337 336 295 197 207 224 164 155 149 111 104 126 115 187 215 165 157 240 251 270 332 318 301 320 325 259 239 215 92 23 353 353 40 55 45 37 29 2 340 341 1 10 5 358 355 359 7 14 16 12 1 350 346 343 339 333 325 316 308 301 295 290 285 279 276 274 270 268 267 267 266 266 264 262 260 258 256 255 255
186 182 148 156 178 198 209 211 224 212 178 201 199 166 174 156 144 162 137 123 230 224 160 185 236 240 258 317 315 314 329 269 245 256 248 224 285 295 296 333 10 32 35 24 6 356 346 340 352 7 16 22 25 27 26 25 22 15 11 11 6 357 350 341 331 318 309 301 294 289 284 281 278 275 273 272 271 271 270 267 265 263 261 259 257 256
143 184 193 193 200 206 209 207 166 127 140 202 204 178 181 181 175 172 134 171 212 177 168 220 232 234 238 247 258 262 246 229 229 230 234 243 261 262 253 275 333 15 10 7 15 5 358 1 6 20 31 34 34 33 32 29 26 22 19 17 12 5 359 351 339 328 318 308 299 294 292 289 287 284 281 279 278 276 274 270 268 265 264 262 259 257
104 208 214 205 218 225 215 199 165 144 166 199 199 185 186 188 181 177 192 211 193 133 235 232 208 229 243 222 220 242 238 236 242 229 228 239 247 250 258 281 341 18 353 11 37 31 40 36 336 21 42 39 34 32 33 31 28 24 18 14 11 6 1 352 343 336 327 317 308 305 304 301 298 293 290 287 284 280 277 273 270 268 266 263 260 258
129 217 215 196 227 240 213 161 178 176 181 198 197 191 190 187 184 191 210 219 190 180 239 230 165 210 241 222 206 230 228 228 242 235 226 246 257 257 263 265 253 109 136 118 127 160 159 179 211 45 37 32 29 25 24 24 22 20 16 11 6 3 358 351 344 340 332 324 319 318 317 312 307 302 298 293 288 284 281 277 274 271 267 264 261 260
158 218 211 179 222 245 223 167 181 186 188 206 204 195 191 189 193 200 212 221 211 208 237 236 184 221 244 220 202 228 227 227 251 266 262 256 246 223 209 206 176 155 150 127 124 128 77 50 30 32 28 25 22 16 12 12 10 10 8 5 2 1 356 349 343 340 334 329 328 326 324 319 314 309 304 298 293 289 285 281 277 273 268 266 263 262
199 217 191 142 202 254 233 183 196 197 192 209 213 201 196 195 202 210 217 222 218 220 241 249 243 250 252 191 194 230 222 212 244 250 239 241 234 214 199 184 161 152 141 109 81 39 34 31 28 26 22 17 13 7 4 3 2 3 3 2 1 359 355 350 345 341 334 331 330 328 326 322 319 313 307 303 298 293 289 285 280 275 270 268 266 264
186 212 68 111 177 253 227 187 197 187 164 232 241 215 201 200 207 216 219 218 208 209 229 241 248 255 246 181 196 224 190 190 226 230 229 237 230 209 192 176 161 150 129 91 58 41 35 31 25 19 12 9 7 5 3 359 359 1 2 2 2 0 358 356 351 345 339 336 335 332 330 327 323 318 313 309 305 300 295 289 282 277 273 270 269 267
169 178 151 143 188 248 238 176 157 122 97 254 242 219 207 205 213 217 219 227 216 204 213 222 228 243 242 196 200 219 185 201 224 225 223 225 215 200 183 165 154 146 129 96 65 50 38 28 20 14 11 10 8 6 5 2 1 2 4 6 7 5 3 1 358 353 348 346 343 340 338 334 329 324 320 316 311 304 298 290 283 279 276 274 273 270
176 185 191 168 189 237 220 117 110 141 199 228 226 214 207 206 211 210 209 219 216 206 211 222 231 247 245 194 198 217 208 209 221 213 213 211 187 171 161 155 151 139 118 86 68 55 34 26 22 22 23 21 15 13 13 12 9 9 13 14 13 12 10 7 5 2 356 352 350 347 344 339 334 329 324 321 316 309 302 294 289 285 282 279 275 271
181 192 195 175 188 221 135 107 143 214 221 230 228 208 206 212 211 208 214 222 218 210 218 233 245 250 239 210 209 217 203 176 126 139 157 163 160 153 145 151 152 130 112 96 79 52 27 26 25 26 29 27 23 21 20 20 20 20 21 20 17 16 14 11 9 6 360 355 352 348 345 342 337 332 327 324 320 314 307 302 296 293 290 285 279 274
182 186 184 182 184 175 120 158 215 238 237 242 241 204 204 215 209 208 231 243 232 215 216 225 236 240 233 209 182 178 161 130 86 64 20 47 129 140 140 151 157 144 138 132 107 62 35 32 31 32 32 28 26 26 25 24 24 23 23 21 20 18 15 13 10 6 1 357 353 349 345 342 338 334 331 328 324 317 311 307 302 299 295 290 284 279
188 186 189 208 201 204 220 218 233 274 304 243 227 215 200 191 181 189 223 243 230 215 213 219 231 240 235 179 139 134 128 111 71 323 276 272 145 140 144 146 148 146 136 119 103 75 53 46 47 47 42 35 31 29 27 25 24 23 22 20 19 16 14 12 9 4 360 357 353 349 346 343 339 337 334 332 328 322 317 312 307 303 299 293 287 282
199 193 193 210 207 203 227 235 237 249 247 231 228 226 188 171 173 177 202 236 233 215 211 217 228 237 230 174 150 143 124 130 215 235 226 223 204 150 132 123 127 128 113 92 79 64 51 49 54 52 45 41 36 30 26 24 23 23 22 19 16 13 11 9 4 360 356 354 352 350 347 343 340 337 334 332 329 325 321 317 311 308 303 295 289 285
96 29 176 216 217 198 214 231 228 226 234 235 233 224 165 152 136 125 188 244 241 211 200 205 219 231 221 177 156 151 145 196 235 223 181 184 186 153 135 125 117 108 92 74 60 49 42 46 54 52 44 38 33 28 24 22 22 22 20 17 14 11 8 3 358 354 351 349 349 348 346 344 339 336 333 330 328 325 322 318 314 310 305 297 291 287
161 60 167 218 222 211 212 226 232 230 237 234 229 220 180 145 116 118 217 246 232 182 176 185 210 228 214 166 156 167 183 219 235 196 156 160 159 142 133 120 104 88 74 65 53 41 40 47 50 47 42 34 26 23 21 18 21 22 17 15 13 9 4 357 353 351 348 346 346 346 346 344 340 335 332 328 325 323 321 319 316 313 308 302 296 291
179 171 198 214 223 220 219 228 239 243 236 220 214 206 171 137 128 179 225 238 175 161 174 185 203 215 187 157 167 188 204 223 170 134 138 137 129 126 113 99 93 81 69 63 52 40 41 49 51 49 42 31 24 23 19 15 19 19 15 16 13 5 358 353 351 350 348 346 346 346 346 345 341 337 332 329 326 323 320 319 318 316 312 307 301 295
186 181 190 204 217 223 225 231 239 250 234 185 164 176 162 154 183 211 221 253 143 167 182 191 195 189 162 162 177 177 151 108 109 121 128 126 123 120 100 89 84 72 62 58 48 37 33 39 45 46 40 32 28 25 18 15 17 16 16 17 9 358 354 352 351 349 347 346 346 345 345 345 342 339 336 332 330 324 320 319 319 317 315 310 304 297
182 185 196 197 200 211 227 226 226 244 225 149 126 144 201 197 204 190 137 35 80 158 156 160 169 168 158 152 145 128 121 117 114 114 114 113 110 100 87 80 73 59 50 43 35 27 24 27 32 35 35 33 30 27 21 18 16 16 17 13 2 355 353 351 350 348 346 345 345 345 344 343 341 340 339 336 334 327 321 320 319 318 316 312 305 299
187 190 199 200 196 197 212 218 213 223 201 156 141 179 216 208 187 157 141 115 109 160 153 128 122 156 153 137 129 130 128 121 117 115 112 106 98 91 83 74 68 60 50 40 30 22 20 20 20 26 36 33 30 29 26 22 18 16 14 7 358 354 352 349 347 345 343 343 343 343 342 340 337 337 336 336 335 329 324 323 321 318 316 312 307 300
215 203 190 189 198 202 209 222 237 302 228 194 158 205 215 196 144 148 141 131 147 183 173 139 131 142 138 130 128 129 126 123 122 118 113 107 97 91 84 71 64 59 49 40 31 24 21 18 15 22 32 32 29 29 29 26 22 16 8 1 356 354 351 347 345 343 341 340 339 339 339 336 334 333 331 331 332 328 325 324 321 317 314 311 306 299
275 302 41 157 187 238 236 201 166 347 321 335 2 8 204 321 158 145 132 128 145 159 146 137 140 140 135 131 125 119 120 125 118 106 105 109 99 85 80 73 63 57 50 41 31 22 21 23 21 22 24 25 26 26 25 26 24 17 6 358 354 352 348 346 344 341 339 337 335 335 335 333 331 331 329 327 327 325 322 322 318 314 310 306 301 295
306 256 73 163 181 192 215 197 167 206 286 328 22 56 64 31 15 86 120 128 131 123 111 114 124 126 127 128 126 123 125 123 115 105 92 93 96 91 87 80 67 56 48 38 26 19 22 27 24 20 17 16 17 18 18 20 20 17 9 0 354 349 346 345 343 339 336 335 333 332 332 331 329 328 327 326 325 322 319 318 316 311 305 300 296 291
291 95 82 243 203 180 215 273 243 244 272 255 202 144 127 111 78 74 90 104 104 99 90 86 103 118 121 122 125 126 124 122 122 122 114 99 97 91 80 73 63 50 44 35 22 19 26 27 22 18 14 9 8 10 10 10 13 14 10 359 352 349 346 345 343 338 335 335 332 330 330 328 326 325 324 323 322 319 316 314 312 307 301 297 293 288
102 113 135 232 256 38 323 257 220 56 335 277 268 46 64 93 103 101 102 102 101 99 89 70 62 80 100 114 123 121 117 119 122 124 125 123 117 102 85 73 54 41 35 26 17 21 28 26 20 16 12 7 5 4 0 2 8 9 359 349 349 350 348 346 343 339 336 334 331 329 328 326 324 323 321 320 319 318 315 312 309 305 301 301 298 290
139 175 157 111 147 253 234 196 177 127 184 243 224 105 77 74 104 109 108 106 108 112 109 95 72 56 64 80 102 117 122 126 130 131 132 130 126 119 94 60 50 42 29 20 19 25 31 29 20 13 10 7 3 357 353 358 6 360 346 345 350 351 350 348 343 339 337 335 331 329 327 325 322 321 319 317 317 317 316 315 312 308 303 303 305 300
182 191 175 163 206 233 199 178 180 169 184 211 173 146 145 147 128 120 116 115 118 122 124 118 108 95 77 62 72 105 125 133 137 140 136 124 114 104 80 57 54 43 27 21 20 22 25 27 21 15 12 6 356 349 351 360 4 350 341 347 352 351 350 350 344 338 337 335 332 330 328 324 321 320 319 317 316 316 315 315 314 311 307 304 305 305